Dewpoint
67 67 67 67 66 65 64 63 62 61 60 57 56 54 56 61 63 64 65 66 66 66 66 65 65 65 66 65 65 64 62 61 60 61 60 60 60 61 60 59 58 58 58
66 67 67 66 66 64 64 63 61 60 59 59 56 55 56 60 61 62 63 64 65 65 64 63 64 65 64 63 62 61 60 59 59 59 58 58 59 60 59 59 57 56 55
65 67 67 66 65 63 63 62 60 60 58 60 56 56 56 59 60 61 61 62 63 62 60 61 62 63 62 61 59 56 56 58 58 58 57 58 59 59 58 58 57 56 54
65 67 66 65 64 62 61 61 60 60 60 60 57 58 56 58 60 60 60 60 60 59 59 60 61 60 59 58 57 57 56 57 57 56 56 59 59 59 58 57 57 56 57
65 66 65 64 63 61 60 61 60 60 60 59 58 57 56 56 59 59 59 59 59 58 58 60 59 58 59 59 58 57 57 57 56 56 58 59 58 57 57 57 57 57 56
65 66 65 64 62 60 60 61 60 61 60 59 58 57 57 56 57 58 59 59 59 58 58 58 58 57 57 57 57 58 58 57 56 56 56 58 57 57 57 57 57 56 55
66 65 64 63 61 59 60 61 60 60 59 59 58 57 57 56 55 56 57 58 58 58 58 58 58 58 57 57 57 58 58 58 57 57 57 57 57 57 57 57 56 55 54
66 65 64 63 61 59 60 59 60 59 59 58 57 56 54 56 56 56 57 56 56 57 57 57 58 58 58 57 57 57 58 59 58 58 58 57 57 56 56 55 55 54 53
66 65 65 63 62 60 60 58 60 59 58 58 57 55 53 52 55 57 56 55 56 57 57 57 57 57 57 57 58 57 57 58 59 59 58 57 56 55 55 55 55 54 53
66 65 65 64 62 60 59 59 61 59 58 57 57 56 55 54 52 53 56 56 56 55 58 57 57 57 56 56 57 57 56 57 58 58 58 58 56 55 54 54 55 54 53
66 65 65 64 63 62 60 60 60 59 58 57 56 55 54 54 54 53 52 55 57 57 55 57 57 56 56 55 55 56 56 56 56 58 59 58 57 56 56 54 54 54 53
66 66 65 64 64 62 61 60 60 59 58 57 56 55 54 53 52 51 52 53 54 56 57 57 57 57 56 56 55 55 54 54 55 56 58 58 57 57 56 56 54 54 54
65 65 65 65 64 63 61 61 61 60 59 57 56 55 54 53 52 52 52 53 52 54 57 57 57 57 57 57 56 55 54 53 53 55 56 58 57 56 56 56 56 54 54
64 65 65 65 65 64 62 61 61 61 59 58 57 55 55 54 51 51 52 53 52 53 54 56 57 58 57 57 57 55 55 53 52 53 55 56 57 56 56 56 56 55 55
63 61 62 64 64 64 63 62 61 60 59 58 57 56 55 54 53 51 51 53 51 51 52 54 55 58 58 58 57 56 55 53 52 52 53 55 56 56 56 56 56 55 55
54 61 58 60 61 65 64 62 61 61 59 58 57 56 55 54 54 55 53 51 50 51 51 54 55 56 57 57 57 57 56 54 52 51 51 53 54 55 55 55 55 55 55
47 52 59 61 64 64 64 63 62 61 59 58 57 56 55 54 54 55 56 54 52 51 50 53 54 55 57 57 57 57 57 55 52 50 50 50 52 54 54 54 54 54 54
43 45 49 47 48 51 62 63 62 61 59 58 57 55 55 55 54 55 56 55 53 52 51 49 53 55 55 57 57 57 57 56 54 50 49 49 50 51 52 53 53 53 53
40 40 43 42 42 44 46 55 62 61 59 58 57 56 55 54 53 53 56 56 55 54 53 51 49 56 56 57 56 56 56 57 56 53 49 49 49 49 50 51 52 52 52
37 38 40 41 40 40 41 41 46 59 60 59 58 58 57 55 54 54 55 56 56 55 53 52 51 51 56 57 56 55 55 56 56 55 51 49 48 48 48 49 50 51 51
36 36 37 38 39 37 37 37 39 47 53 60 59 58 58 57 56 56 56 56 56 55 55 53 53 51 53 56 56 56 55 56 56 55 53 51 49 48 48 47 48 49 49
36 35 35 36 37 37 37 37 38 43 45 46 55 60 59 57 56 55 56 56 57 56 55 55 54 53 52 53 57 57 56 56 55 56 54 53 51 50 50 49 48 48 47
37 36 36 36 36 37 38 36 37 41 42 43 44 45 60 60 58 57 55 56 56 56 56 56 55 54 54 54 55 56 57 56 55 56 56 54 51 51 51 51 49 47 47
37 36 36 37 37 37 38 37 36 38 40 40 42 40 43 49 51 58 58 56 57 56 55 54 57 56 56 56 56 56 56 57 54 54 58 54 50 52 52 53 52 50 48
35 35 36 37 37 38 38 37 37 36 36 37 39 40 38 39 38 44 58 57 57 57 58 56 56 58 58 57 57 57 55 54 52 53 53 55 49 52 49 51 53 51 50
34 34 33 34 36 36 38 36 37 36 34 35 35 38 37 36 36 37 43 48 54 55 55 54 55 54 55 56 56 58 56 55 50 50 50 54 49 50 51 45 46 47 49
Wind_Speed
24 21 21 20 17 15 17 17 17 17 16 14 12 10 4 16 16 14 14 21 19 19 21 21 21 21 22 21 20 20 18 17 15 15 14 14 14 15 15 14 14 14 14
25 24 23 22 19 18 17 18 19 18 17 14 16 14 8 19 18 16 16 17 20 20 19 19 20 21 21 20 19 16 15 11 11 12 12 12 15 14 14 12 12 12 11
29 26 25 22 22 20 20 17 17 16 16 15 17 15 13 20 18 17 17 16 17 17 18 18 18 19 18 17 14 14 12 12 13 11 11 13 14 14 14 14 12 11 13
31 27 25 24 24 22 22 20 21 19 17 18 16 16 14 18 18 19 17 16 16 14 16 17 18 19 15 15 15 13 13 12 13 13 12 13 14 13 14 14 14 13 14
33 29 28 26 26 24 24 22 21 21 19 19 20 17 14 18 19 17 18 18 17 16 17 16 17 17 17 17 16 15 16 16 15 15 13 14 15 14 14 14 15 16 14
34 30 27 28 28 26 25 22 24 19 20 19 18 18 15 16 18 18 19 17 18 18 17 16 15 16 19 18 19 18 18 19 18 18 16 14 15 16 16 15 17 17 15
34 33 29 29 30 29 30 28 22 25 21 18 18 14 12 15 19 18 18 17 17 19 19 18 17 15 16 21 21 21 22 22 22 21 19 17 16 17 17 17 17 17 16
34 32 31 30 32 29 29 30 26 23 18 22 20 18 13 6 13 16 18 19 20 18 19 18 19 18 16 16 19 24 23 23 22 22 20 18 17 18 19 19 19 18 18
35 36 34 31 32 32 31 34 27 32 30 25 24 15 11 11 12 9 17 18 21 19 19 20 20 20 18 18 17 23 26 23 23 23 22 21 20 20 20 20 19 19 18
38 38 34 35 33 32 33 34 28 30 27 31 20 15 9 10 14 10 9 19 18 20 21 19 20 19 19 19 21 23 26 28 23 23 24 24 24 23 22 21 21 20 19
41 39 36 37 32 29 32 35 33 31 30 31 27 26 15 12 12 9 16 16 14 17 19 21 20 20 21 21 19 21 29 31 28 26 25 26 26 25 23 23 22 22 21
36 39 37 35 33 32 32 32 31 33 32 32 31 29 25 19 22 12 7 27 27 19 21 19 21 22 21 22 22 26 32 34 33 30 28 27 28 27 26 25 24 24 22
40 36 39 32 32 34 32 32 32 32 32 31 35 29 27 19 17 12 10 17 17 11 11 18 21 20 21 19 23 30 34 37 36 34 31 29 29 29 27 26 26 25 24
17 21 31 32 32 34 32 31 31 31 31 29 32 28 25 24 19 22 16 19 10 19 12 14 22 21 21 23 24 31 26 37 36 36 35 32 31 30 29 28 27 26 25
32 31 30 30 31 32 33 31 31 32 30 31 29 30 29 28 23 18 19 17 14 14 22 15 12 22 22 19 23 22 23 32 39 38 38 35 32 31 31 30 29 28 27
13 25 42 33 27 28 31 33 31 32 32 31 29 31 29 26 24 18 18 16 15 15 16 18 22 13 25 22 21 25 27 27 39 39 37 36 36 34 34 32 32 31 30
26 16 11 18 28 34 37 36 36 35 34 32 29 29 30 29 25 22 17 18 18 19 19 13 19 22 22 26 24 23 23 21 23 38 39 38 37 37 35 35 34 33 33
28 27 22 21 23 12 27 39 36 34 37 35 33 29 31 27 26 22 20 22 21 19 16 22 16 18 21 25 25 22 21 19 20 29 37 37 38 38 38 36 36 37 35
31 34 29 26 26 24 21 13 34 31 33 34 34 34 35 30 29 27 24 23 21 21 22 18 17 9 17 12 17 13 18 18 18 23 35 39 39 37 35 35 37 39 39
26 29 27 24 24 19 20 25 21 16 33 34 35 35 35 35 34 31 29 28 24 23 19 21 19 17 11 9 17 21 19 13 18 13 21 26 31 32 34 38 39 40 38
22 21 21 20 19 26 25 30 29 17 8 27 32 36 36 36 40 36 29 28 27 25 22 25 22 18 15 10 23 14 20 16 17 13 17 15 16 18 22 26 28 33 36
21 20 23 21 22 20 24 28 24 17 19 13 6 32 33 38 39 41 38 33 28 27 27 24 26 24 25 21 16 21 20 12 15 13 19 19 17 20 19 19 29 33 34
21 22 21 17 18 19 25 30 32 21 19 17 24 28 23 29 34 31 37 39 38 37 35 30 30 29 29 26 22 19 22 23 22 16 24 22 14 21 16 17 26 30 31
19 18 18 17 15 16 22 25 26 23 19 20 26 26 24 6 5 30 34 31 31 29 31 30 30 30 26 24 27 29 28 23 5 7 17 19 13 20 15 17 22 27 30
20 19 18 16 16 15 19 22 20 17 18 18 19 19 22 22 26 17 20 30 29 25 20 23 22 18 17 24 25 18 19 20 14 15 17 16 11 16 10 18 18 28 28
19 17 20 18 19 19 19 22 19 13 15 18 19 18 23 28 30 27 14 3 18 17 17 18 20 19 17 23 28 28 22 27 14 11 10 18 13 12 8 7 13 15 18
Wind_Direction
172 165 171 170 167 167 168 165 168 177 186 192 185 192 166 142 134 148 150 151 155 159 159 157 158 156 159 160 155 151 148 148 148 147 144 139 139 131 129 130 129 125 123
174 169 171 171 169 170 174 172 173 178 191 192 183 194 193 148 144 148 148 153 155 157 150 155 154 156 154 155 152 148 156 150 157 152 148 148 140 129 128 126 129 137 130
177 169 172 172 171 170 172 173 173 175 185 193 191 191 148 143 148 146 146 151 160 171 163 166 162 159 161 163 170 173 181 172 159 160 161 152 139 142 142 139 139 138 139
177 171 173 176 171 169 173 176 178 180 187 181 188 183 158 152 155 153 151 153 159 162 169 177 173 175 179 187 191 192 190 191 189 188 179 158 154 156 153 153 155 152 153
180 174 175 175 168 170 176 180 180 181 184 175 178 172 173 145 154 156 160 162 165 167 172 176 184 188 183 192 200 196 197 198 199 191 182 169 169 170 167 165 162 154 151
182 176 176 172 169 174 176 181 183 180 178 165 172 172 172 161 158 164 168 171 174 176 178 186 193 197 201 202 205 205 202 202 203 203 200 193 188 183 177 174 168 163 163
185 180 178 170 173 177 180 181 182 172 169 160 150 171 174 178 178 169 168 173 181 182 184 188 193 194 203 207 210 211 211 207 209 211 200 204 203 191 183 179 175 169 169
188 184 180 175 176 176 182 178 182 177 170 170 171 167 171 174 200 191 175 178 184 181 187 189 192 195 196 203 210 213 216 221 214 215 211 203 207 193 187 184 181 177 178
187 187 184 182 180 177 180 180 183 179 175 180 168 167 153 193 167 211 196 185 186 182 185 186 191 196 198 203 203 210 214 224 215 210 208 198 200 198 195 191 188 188 189
188 188 183 185 188 182 182 181 184 183 177 179 176 185 174 150 173 174 204 200 190 189 182 185 189 194 197 200 204 208 210 216 221 206 206 200 201 203 201 198 197 196 196
187 188 185 183 187 187 186 183 182 184 182 180 185 185 191 171 166 159 188 190 202 204 196 187 188 193 197 197 201 207 208 211 214 206 206 202 202 205 204 204 203 203 202
189 188 186 185 185 188 186 187 185 184 184 184 188 191 191 178 185 177 161 190 198 202 201 195 186 196 196 196 199 202 208 210 210 210 208 205 203 204 205 205 207 207 208
190 193 184 184 187 190 187 185 188 187 186 188 188 188 194 192 182 182 152 179 194 195 194 200 207 199 199 192 200 199 206 209 210 211 210 208 204 204 205 206 207 212 211
218 209 191 192 191 190 188 188 190 192 187 190 188 191 192 199 190 194 173 167 169 197 189 193 201 203 203 207 206 200 203 207 208 210 211 210 205 203 204 205 207 209 211
198 183 229 211 204 189 188 187 187 190 190 190 189 189 195 201 205 201 197 182 178 182 205 204 183 203 206 205 209 197 199 206 208 210 210 211 208 206 205 205 204 207 210
15 211 210 190 238 198 191 187 189 192 189 195 196 196 202 204 208 208 213 211 207 197 208 203 207 190 203 208 206 201 210 197 206 209 209 209 209 209 208 206 206 207 210
16 356 205 191 198 214 196 191 190 190 191 194 199 201 204 207 210 211 209 212 209 210 221 214 207 206 194 204 212 206 209 200 203 207 208 209 211 212 210 208 208 209 212
28 10 50 22 22 14 237 192 195 192 192 195 199 198 207 207 214 208 205 209 210 205 205 219 199 199 203 204 206 201 206 202 201 205 207 209 211 214 213 210 208 212 215
27 27 39 34 34 25 8 298 195 195 192 199 201 205 207 212 217 216 209 212 210 213 219 224 224 196 207 196 201 204 203 208 202 200 205 210 212 214 214 211 212 215 218
29 39 27 31 36 39 37 2 339 209 193 196 205 208 211 208 213 216 216 213 206 206 201 211 221 208 197 196 195 204 212 205 206 191 202 207 211 215 215 216 216 218 219
21 31 39 32 30 35 18 0 352 331 25 199 210 209 210 211 207 210 213 217 210 204 206 211 218 210 201 183 196 202 213 206 204 187 198 203 206 211 223 224 225 221 221
19 20 26 25 23 22 11 14 7 360 35 6 298 211 215 207 209 207 207 209 210 207 210 210 213 213 212 204 188 199 201 188 211 209 195 211 187 210 217 211 219 221 221
10 10 15 16 22 16 8 17 14 15 12 37 37 0 219 214 205 207 209 209 210 211 210 208 214 216 218 212 203 201 202 205 216 206 197 222 190 217 214 222 220 217 220
12 6 5 4 16 13 9 22 22 11 8 18 39 23 6 358 257 209 203 211 215 213 214 215 218 222 219 213 208 212 211 212 211 211 193 210 185 218 204 219 218 217 221
356 3 360 360 5 4 23 23 24 20 8 10 31 39 23 2 12 15 207 201 211 217 222 223 229 222 211 204 198 189 199 194 201 191 199 195 198 208 208 224 220 218 221
350 353 360 359 15 9 12 20 22 19 14 18 10 15 11 9 352 22 42 21 204 215 214 217 226 232 223 206 197 203 201 210 194 202 204 196 190 190 230 225 233 224 220